Location: Lane
(33.5226°N, 79.8788°W)
Time: 03:19:51
(UTC+00:00)

Tiros 1 despin weight - Pass Details

Date: 04 October 2022
Orbit: 590 x 637 km, 48.2° (Epoch: 30 November)

Event Time Altitude Azimuth Distance (km) Brightness Sun altitude
Rises 02:48:02 0° 311° (NW) 2,902 ? -46.2°
Enters shadow 02:48:40 - 312° (NW) 2,655 ? -46.3°
Reaches altitude 10° 02:50:22 10° 315° (NW) 2,000 - -46.6°
Maximum altitude 02:54:55 58° 35° (NE) 736 - -47.4°
Drops below altitude 10° 02:59:30 10° 115° (ESE) 2,013 - -48.1°
Sets 03:01:52 0° 119° (ESE) 2,922 - -48.5°
